This demonstration page uses our WeatherBlox Daily Observations layout. Learn more.

Left ArrowRight Arrow

Hourly Observations for September 3, 2020

Temp ( °F °C ) Dew Point ( °F °C ) Humidity (%) Winds ( mph kmh ) Pressure ( in mb ) Visibility ( mi km ) Precip ( " mm )
12:15 am 00:15 Clear 70 21.1 53 11.5 54 54 S 10 17 29.76 1008 10 16 N/A
12:35 am 00:35 Clear 69 20.7 53 11.5 56 56 SSW 9 15 29.75 1008 10 16 N/A
12:55 am 00:55 Clear 68 20.2 53 11.6 58 58 SSW 8 13 29.75 1007 10 16 N/A
1:15 am 01:15 Clear 68 20.2 54 12 59 59 SSW 12 19 29.75 1007 10 16 N/A
1:35 am 01:35 Clear 68 20.2 55 12.9 63 63 SW 8 13 29.75 1007 10 16 N/A
1:55 am 01:55 Clear 69 20.3 56 13.5 65 65 SW 12 19 29.75 1007 10 16 N/A
2:15 am 02:15 Clear 69 20.5 57 14 66 66 SW 10 17 29.74 1007 10 16 N/A
2:35 am 02:35 Clear 68 20 58 14.4 70 70 SW 9 15 29.74 1007 10 16 N/A
2:55 am 02:55 Clear 68 20 58 14.7 72 72 SSW 10 17 29.74 1007 10 16 N/A
3:15 am 03:15 Clear 67 19.7 59 15 74 74 SSW 8 13 29.74 1007 10 16 N/A
3:35 am 03:35 Clear 68 20 60 15.4 75 75 SSW 9 15 29.74 1007 10 16 N/A
3:55 am 03:55 Clear 67 19.5 60 15.5 78 78 SW 9 15 29.74 1007 10 16 N/A
4:15 am 04:15 Clear 67 19.5 60 15.6 78 78 WSW 7 11 29.75 1008 10 16 N/A
4:35 am 04:35 Clear 67 19.4 60 15.4 78 78 NNW 10 17 29.79 1009 10 16 N/A
4:55 am 04:55 Clear 65 18.5 58 14.5 78 78 WNW 6 9 29.80 1009 10 16 N/A
5:15 am 05:15 Clear 64 18 56 13.6 76 76 NNW 9 15 29.83 1010 10 16 N/A
5:35 am 05:35 Clear 66 19 52 11 60 60 N 13 20 29.85 1011 10 16 N/A
5:55 am 05:55 Clear 65 18.6 50 9.8 57 57 N 12 19 29.85 1011 10 16 N/A
6:15 am 06:15 Clear 63 17.4 51 10.3 63 63 N 10 17 29.88 1012 10 16 N/A
6:35 am 06:35 Clear 63 17 50 9.9 63 63 N 12 19 29.89 1012 10 16 N/A
6:55 am 06:55 Clear 62 16.6 49 9.5 63 63 N 9 15 29.92 1013 10 16 N/A
7:15 am 07:15 Sunny 61 16 49 9.5 66 66 N 9 15 29.93 1014 10 16 N/A
7:35 am 07:35 Sunny 61 16 49 9.4 65 65 N 12 19 29.96 1015 10 16 N/A
7:55 am 07:55 Sunny 62 16.7 48 9 61 61 N 16 26 29.96 1015 10 16 N/A
8:15 am 08:15 Sunny 63 17 47 8.1 56 56 N 18 30 29.98 1015 10 16 N/A
8:35 am 08:35 Sunny 63 17 46 7.5 54 54 N 17 28 30.00 1016 10 16 N/A
8:55 am 08:55 Sunny 63 17.2 44 6.7 50 50 N 17 28 30.02 1017 10 16 N/A
9:15 am 09:15 Sunny 64 17.5 44 6.7 49 49 N 14 22 30.03 1017 10 16 N/A
9:35 am 09:35 Sunny 64 18 44 6.9 48 48 N 13 20 30.03 1017 10 16 N/A
9:55 am 09:55 Sunny 65 18.2 44 6.7 47 47 NNE 21 33 30.04 1017 10 16 N/A
10:15 am 10:15 Sunny 65 18.6 43 6.3 45 45 N 20 31 30.06 1018 10 16 N/A
10:35 am 10:35 Sunny 66 19 43 6.2 43 43 NNE 15 24 30.07 1018 10 16 N/A
10:55 am 10:55 Sunny 67 19.5 44 6.4 43 43 N 14 22 30.06 1018 10 16 N/A
11:15 am 11:15 Sunny 68 20 43 6.3 41 41 N 15 24 30.08 1019 10 16 N/A
11:35 am 11:35 Sunny 69 20.6 43 5.9 38 38 N 14 22 30.06 1018 10 16 N/A
11:55 am 11:55 Sunny 70 21.1 43 6.1 38 38 NNE 16 26 30.07 1018 10 16 N/A
12:15 pm 12:15 Sunny 71 21.4 42 5.8 36 36 N 13 20 30.07 1018 10 16 N/A
12:35 pm 12:35 Sunny 72 22.1 42 5.7 35 35 N 10 17 30.06 1018 10 16 N/A
12:55 pm 12:55 Sunny 72 22.4 43 6.2 35 35 N 10 17 30.06 1018 10 16 N/A
1:15 pm 13:15 Sunny 73 22.8 42 5.7 33 33 N 12 19 30.03 1017 10 16 N/A
1:35 pm 13:35 Sunny 74 23.1 42 5.8 33 33 N 10 17 30.04 1017 10 16 N/A
1:55 pm 13:55 Sunny 74 23.4 41 5.1 31 31 N 9 15 30.03 1017 10 16 N/A
2:15 pm 14:15 Sunny 75 23.8 40 4.4 28 28 NNE 9 15 30.04 1017 10 16 N/A
2:35 pm 14:35 Sunny 75 23.8 40 4.3 28 28 N 9 15 30.03 1017 10 16 N/A
2:55 pm 14:55 Sunny 76 24.3 40 4.4 28 28 N 12 19 30.01 1016 10 16 N/A
3:15 pm 15:15 Sunny 76 24.2 41 5 29 29 N 7 11 30.01 1016 10 16 N/A
3:35 pm 15:35 Sunny 76 24.6 40 4.6 27 27 NNW 5 7 30.01 1016 10 16 N/A
3:55 pm 15:55 Sunny 76 24.7 39 4 26 26 NNE 8 13 30.00 1016 10 16 N/A
4:15 pm 16:15 Sunny 76 24.6 39 4.1 27 27 N 3 6 30.00 1016 10 16 N/A
4:35 pm 16:35 Sunny 77 24.9 40 4.6 27 27 N 3 6 29.99 1015 10 16 N/A
4:55 pm 16:55 Sunny 77 25 40 4.4 26 26 N 6 9 29.99 1015 10 16 N/A
5:15 pm 17:15 Sunny 77 25 39 3.9 26 26 N N/A 29.99 1015 10 16 N/A
5:35 pm 17:35 Sunny 77 25 39 3.8 25 25 NNE 3 6 29.99 1015 10 16 N/A
5:55 pm 17:55 Sunny 76 24.7 40 4.5 27 27 ENE 6 9 29.97 1015 10 16 N/A
6:15 pm 18:15 Sunny 76 24.7 40 4.2 27 27 ENE 5 7 29.97 1015 10 16 N/A
6:35 pm 18:35 Sunny 76 24.5 39 4.1 27 27 ENE 5 7 29.97 1015 10 16 N/A
6:55 pm 18:55 Sunny 75 24 42 5.7 31 31 ENE 3 6 29.97 1015 10 16 N/A
7:15 pm 19:15 Sunny 74 23.5 43 6.1 33 33 E 3 6 29.98 1015 10 16 N/A
7:35 pm 19:35 Sunny 72 22.4 44 6.8 37 37 E 3 6 29.99 1015 10 16 N/A
7:55 pm 19:55 Sunny 70 21.2 46 8 43 43 N N/A 30.00 1016 10 16 N/A
8:15 pm 20:15 Clear 67 19.4 47 8.6 50 50 ESE 3 6 30.01 1016 10 16 N/A
8:35 pm 20:35 Clear 64 17.8 49 9.6 59 59 ESE 3 6 30.03 1017 7 11 N/A
8:55 pm 20:55 Clear 62 16.6 48 9 61 61 ESE 5 7 30.05 1017 10 16 N/A
9:15 pm 21:15 Hazy 61 16 48 8.9 63 63 SE 6 9 30.06 1018 3 4 N/A
9:35 pm 21:35 Hazy 59 15 48 9.1 68 68 ESE 6 9 30.08 1019 3 5 N/A
9:55 pm 21:55 Hazy 57 14.1 48 9 72 72 SE 6 9 30.09 1019 4 6 N/A
10:15 pm 22:15 Clear 56 13.6 48 9.1 74 74 SE 5 7 30.10 1019 10 16 N/A
10:35 pm 22:35 Clear 56 13.5 48 8.9 74 74 SE 5 7 30.10 1019 10 16 N/A
10:55 pm 22:55 Clear 57 13.8 47 8.4 70 70 N N/A 30.10 1019 10 16 N/A
11:15 pm 23:15 Clear 56 13.6 47 8.4 71 71 N N/A 30.11 1020 10 16 N/A
11:35 pm 23:35 Clear 57 13.9 47 8.2 69 69 SSE 3 6 30.11 1020 10 16 N/A
11:55 pm 23:55 Clear 57 13.7 47 8.1 69 69 N N/A 30.12 1020 10 16 N/A

Powered by AerisWeather